This is the latest recevied weather packets stored in our database for station/object DC1NF-7. If no packets are shown the sender has not sent any weather packets the latest 10 day(s).
| Time | Temp. | Humidity | Pressure | Rain* | Wind** | Luminosity | Snow |
|---|---|---|---|---|---|---|---|
| 1777466116 | 17.22° C | 27% | 1023.6 hPa | 0 mm | - | 790 W/m² | - |
| 1777465572 | 17.22° C | 26% | 1023.7 hPa | 0 mm | - | 800 W/m² | - |
| 1777464972 | 16.67° C | 25% | 1023.8 hPa | 0 mm | - | 808 W/m² | - |
| 1777464369 | 16.67° C | 26% | 1023.9 hPa | 0 mm | - | 818 W/m² | - |
| 1777463763 | 16.67° C | 25% | 1024 hPa | 0 mm | - | 826 W/m² | - |
| 1777463160 | 16.11° C | 26% | 1024 hPa | 0 mm | - | 837 W/m² | - |
| 1777462556 | 16.67° C | 28% | 1023.9 hPa | 0 mm | - | 848 W/m² | - |
| 1777461952 | 16.67° C | 28% | 1024.1 hPa | 0 mm | - | 858 W/m² | - |
| 1777461347 | 16.67° C | 28% | 1024.1 hPa | 0 mm | - | 868 W/m² | - |
| 1777460747 | 16.11° C | 27% | 1024.1 hPa | 0 mm | - | 874 W/m² | - |
| 1777460144 | 15.56° C | 27% | 1024.4 hPa | 0 mm | - | 874 W/m² | - |
| 1777459537 | 15.56° C | 28% | 1024.3 hPa | 0 mm | - | 872 W/m² | - |
| 1777458939 | 15° C | 28% | 1024.3 hPa | 0 mm | - | 868 W/m² | - |
| 1777458329 | 15.56° C | 28% | 1024.3 hPa | 0 mm | - | 862 W/m² | - |
| 1777457730 | 15.56° C | 28% | 1024.3 hPa | 0 mm | - | 855 W/m² | - |
| 1777457120 | 15.56° C | 28% | 1024.3 hPa | 0 mm | - | 844 W/m² | - |
| 1777456516 | 14.44° C | 29% | 1024.4 hPa | 0 mm | - | 832 W/m² | - |
| 1777455972 | 14.44° C | 30% | 1024.2 hPa | 0 mm | - | 817 W/m² | - |
| 1777455368 | 14.44° C | 30% | 1024.2 hPa | 0 mm | - | 799 W/m² | - |
| 1777454770 | 14.44° C | 30% | 1024.2 hPa | 0 mm | - | 780 W/m² | - |
| 1777454165 | 15° C | 29% | 1024.2 hPa | 0 mm | - | 759 W/m² | - |
| 1777453558 | 15° C | 29% | 1024.2 hPa | 0 mm | - | 737 W/m² | - |
| 1777452957 | 14.44° C | 30% | 1024.2 hPa | 0 mm | - | 715 W/m² | - |
| 1777452349 | 13.89° C | 30% | 1024.1 hPa | 0 mm | - | 697 W/m² | - |
| 1777451746 | 14.44° C | 30% | 1024.1 hPa | 0 mm | - | 672 W/m² | - |
* Rain latest hour (hover to see other rain measurements)
** Current wind speed in m/s (hover to see current wind gust speed)